User: anonymous   Login
Location: �clusier
(49.9361°N, 2.7869°E)
Time: 07:25:34
(UTC+00:00)
Language:

Cosmos 1624 Rocket - Orbit

View from above orbital plane
View from above orbital plane
View from above satellite
View from above satellite

Ground track
Ground track

The orbit data is extracted from the following two-line orbital elements,

1 15483U 85006B   21267.74612507  .00000072  00000-0  33510-4 0  9995
2 15483  74.0483  10.8055 0019518 324.6278 148.4215 14.36385740920326
Epoch (UTC): 24 September 2021 17:54:25
Eccentricity: 0.0019518
inclination: 74.0483°
perigee height: 756 km
apogee height: 784 km
right ascension of ascending node: 10.8055°
argument of perigee: 324.6278°
revolutions per day: 14.36385740
mean anomaly at epoch: 148.4215°
orbit number at epoch: 92032

The dashed part of the orbit path shows where the satellite is in the earth's shadow,  

DLR